This is the latest recevied weather packets stored in our database for station/object OE6PLD-13. If no packets are shown the sender has not sent any weather packets the latest 10 day(s).
| Time | Temp. | Humidity | Pressure | Rain* | Wind** | Luminosity | Snow |
|---|---|---|---|---|---|---|---|
| 1777458556 | 11.11° C | 50% | 1017.4 hPa | 0.76 mm | - | 121 W/m² | - |
| 1777458373 | 11.11° C | 51% | 1017.6 hPa | 0.76 mm | - | 121 W/m² | - |
| 1777458189 | 11.11° C | 52% | 1017.5 hPa | 0.76 mm | - | 115 W/m² | - |
| 1777458006 | 11.11° C | 50% | 1017.4 hPa | 0.76 mm | - | 113 W/m² | - |
| 1777457823 | 11.11° C | 50% | 1017.5 hPa | 0.76 mm | - | 108 W/m² | - |
| 1777457639 | 11.11° C | 54% | 1017.3 hPa | 0.76 mm | - | 104 W/m² | - |
| 1777457456 | 11.11° C | 52% | 1017.4 hPa | 0.76 mm | - | 113 W/m² | - |
| 1777457273 | 10.56° C | 57% | 1017.5 hPa | 0.76 mm | - | 124 W/m² | - |
| 1777457089 | 11.11° C | 52% | 1017.5 hPa | 0.76 mm | - | 122 W/m² | - |
| 1777456906 | 11.11° C | 55% | 1017.5 hPa | 0.76 mm | - | 122 W/m² | - |
| 1777456723 | 11.11° C | 56% | 1017.4 hPa | 0.76 mm | - | 128 W/m² | - |
| 1777456539 | 10.56° C | 56% | 1017.3 hPa | 0.76 mm | - | 132 W/m² | - |
| 1777456356 | 10.56° C | 57% | 1017.3 hPa | 0.76 mm | - | 140 W/m² | - |
| 1777456173 | 11.11° C | 57% | 1017.4 hPa | 0.76 mm | - | 160 W/m² | - |
| 1777455989 | 10.56° C | 59% | 1017.4 hPa | 0.76 mm | - | 162 W/m² | - |
| 1777455806 | 10.56° C | 60% | 1017.3 hPa | 0.76 mm | - | 159 W/m² | - |
| 1777455623 | 10.56° C | 58% | 1017.6 hPa | 0.76 mm | - | 142 W/m² | - |
| 1777455439 | 10.56° C | 58% | 1017.6 hPa | 0.76 mm | - | 135 W/m² | - |
| 1777455256 | 10.56° C | 56% | 1017.8 hPa | 0.76 mm | - | 128 W/m² | - |
| 1777455072 | 10.56° C | 59% | 1017.5 hPa | 0.76 mm | - | 125 W/m² | - |
| 1777454889 | 11.11° C | 51% | 1017.5 hPa | 0.76 mm | - | 117 W/m² | - |
| 1777454706 | 11.11° C | 46% | 1017.6 hPa | 0.76 mm | - | 105 W/m² | - |
| 1777454522 | 11.67° C | 46% | 1017.3 hPa | 0.76 mm | - | 89 W/m² | - |
| 1777454339 | 11.67° C | 47% | 1017.5 hPa | 0.76 mm | - | 78 W/m² | - |
| 1777454156 | 11.67° C | 46% | 1017.7 hPa | 0.76 mm | - | 74 W/m² | - |
* Rain latest hour (hover to see other rain measurements)
** Current wind speed in m/s (hover to see current wind gust speed)